[[{"header":{"parameterUnit":"m.s-1","parameterCategory":1,"la1":30.2991,"la2":30.254,"lo1":-89.0895,"lo2":-89.0444,"dy":0.0017,"dx":0.0017,"nx":28,"ny":28,"refTime":"2023-10-25T03:00:00:Z","depth":0,"parameterNumber":2,"parameterNumberName":"U-component_of_WINDS"},"data":[0,0,0,0,0,0,0,0,0,0,0,0,0,0,0,0,0,0,0,0,0,0,0,0,0,0,0,0,0,0,0,0,0,0,0,0,0,0,0,0,0,0,0,0,0,0,0,0,0,0,0,0,0,0,0,0,0,0,-7.0843,-7.0844,0,-7.09,-7.0901,-7.0901,-7.0827,-7.0825,-7.0822,-7.0819,-7.0875,-7.0879,-7.0883,0,0,0,0,0,0,0,0,0,0,0,0,0,-7.0672,-7.0675,-7.0843,-7.0844,-7.0845,-7.09,-7.0901,-7.0901,-7.0828,-7.0825,-7.0821,-7.0818,-7.0873,-7.0878,-7.0883,0,0,0,0,0,0,0,0,0,0,0,0,0,-7.0739,-7.0676,-7.0843,-7.0815,-7.0813,-7.09,-7.0901,-7.0902,-7.0828,-7.0824,-7.082,-7.0817,-7.0872,-7.0878,-7.0884,-7.1,0,0,-7.0902,-7.0904,0,0,0,0,0,0,0,0,-7.0735,-7.0745,-7.0818,-7.0817,-7.0815,-7.0853,-7.086,-7.0935,-7.0829,-7.0822,-7.0819,-7.0815,-7.087,-7.0876,-7.0896,-7.1003,-7.1005,-7.0902,-7.0906,-7.0908,-7.091,0,0,0,0,0,0,0,-7.0731,-7.0742,-7.0865,-7.0819,-7.0817,-7.0799,-7.0804,-7.0874,-7.0868,-7.0823,-7.0817,-7.0825,-7.0869,-7.089,-7.0896,-7.1006,-7.0902,-7.0907,-7.0911,-7.0913,-7.1216,-7.122,0,0,0,0,0,0,-7.073,-7.0739,-7.0864,-7.0867,-7.0764,-7.0806,-7.0811,-7.0844,-7.0867,-7.0867,-7.0829,-7.0822,-7.0882,-7.0889,-7.0898,-7.1037,-7.0908,-7.0914,-7.0917,-7.1211,-7.1217,-7.1222,0,0,0,0,0,0,-7.0726,-7.0741,-7.0861,-7.0802,-7.0816,-7.0813,-7.085,-7.0848,-7.0869,-7.0872,-7.087,-7.0851,-7.0879,-7.089,-7.0976,-7.1038,-7.0917,-7.0922,-7.1206,-7.1213,-7.1219,-7.1316,0,0,0,0,0,0,-7.0722,-7.0741,-7.0784,-7.0803,-7.0819,-7.0938,-7.0854,-7.0852,-7.0879,-7.0871,-7.0893,-7.0892,-7.0877,-7.0968,-7.0982,-7.1044,-7.0927,-7.1201,-7.1209,-7.1217,-7.1307,-7.1325,-7.134,0,0,0,0,0,-7.0716,-7.0807,-7.0787,-7.0802,-7.0874,-7.0942,-7.0951,-7.0932,-7.0885,-7.0929,-7.0932,-7.0892,-7.103,-7.0977,-7.0993,-7.1057,-7.1196,-7.1207,-7.1217,-7.1299,-7.1321,-7.134,0,0,0,0,0,0,-7.0792,-7.0809,-7.0786,-7.0887,-7.0914,-7.0929,-7.0984,-7.0955,-7.0995,-7.0985,-7.0959,-7.0965,-7.1058,-7.1067,-7.1008,-7.1174,-7.1105,-7.1119,-7.1163,-7.1184,-7.12,-7.1194,-7.0932,0,0,0,0,0,-7.0822,-7.0876,-7.0888,-7.0976,-7.0991,-7.0986,-7.1015,-7.0999,-7.1025,-7.1035,-7.1044,-7.1071,-7.1121,-7.1153,-7.1199,-7.131,-7.1314,-7.1362,-7.1379,-7.1393,-7.1403,-7.1465,-7.1486,-7.1255,-7.1255,-7.1255,0,0,-7.0881,-7.0898,-7.0933,-7.0992,-7.1011,-7.1068,-7.0995,-7.1058,-7.11,-7.1044,-7.1127,-7.1136,-7.1164,-7.1264,-7.1308,-7.1274,-7.147,-7.1406,-7.1416,-7.142,-7.1477,-7.1499,-7.1518,-7.1262,-7.126,-7.1259,0,0,-7.1018,-7.1037,-7.1113,-7.1135,-7.1166,-7.1163,-7.1182,-7.1203,-7.1207,-7.1291,-7.1251,-7.1302,-7.1387,-7.141,-7.1433,-7.1587,-7.1552,-7.1603,-7.1688,-7.1748,-7.1766,-7.1782,-7.1837,-7.1857,-7.1615,-7.1615,-7.1615,0,-7.1088,-7.1172,-7.1155,-7.1222,-7.125,-7.1206,-7.1284,-7.1306,-7.135,-7.137,-7.1333,-7.1442,-7.1458,-7.1563,-7.1602,-7.1622,-7.1643,-7.1598,-7.1765,-7.1781,-7.1796,-7.1847,-7.1868,-7.1621,-7.162,-7.162,-7.1619,0,-7.1256,-7.1317,-7.1375,-7.1421,-7.1456,-7.1528,-7.1522,-7.156,-7.1543,-7.1545,-7.1632,-7.1652,-7.1701,-7.1726,-7.1709,-7.1831,-7.1809,-7.1769,-7.1699,-7.1824,-7.1872,-7.1892,-7.1629,-7.1627,-7.1626,-7.1624,0,0,-7.1436,-7.1477,-7.1498,-7.152,-7.1555,-7.1601,-7.1673,-7.1724,-7.1757,-7.1792,-7.1851,-7.1928,-7.1893,-7.1919,-7.1905,-7.1959,-7.208,-7.1912,-7.1913,-7.1941,-7.2216,-7.2243,-7.2266,-7.206,-7.2064,-7.2067,-7.2213,0,-7.1573,-7.1697,-7.1686,-7.1804,-7.186,-7.1823,-7.1886,-7.1915,-7.192,-7.1969,-7.1975,-7.203,-7.198,-7.1996,-7.2048,-7.2054,-7.2134,-7.2044,-7.2113,-7.2116,-7.2104,-7.2292,-7.2319,-7.2456,-7.2232,-7.2235,-7.2238,0,-7.1746,-7.1789,-7.1913,-7.1943,-7.1966,-7.2023,-7.2071,-7.2119,-7.2152,-7.2152,-7.2186,-7.2164,-7.2238,-7.2172,-7.2273,-7.2212,-7.2241,-7.225,-7.2255,-7.2257,-7.2181,-7.2297,-7.25,-7.2519,-7.2267,-7.2265,-7.2263,0,-7.1863,-7.1953,-7.2039,-7.2059,-7.2096,-7.2137,-7.2155,-7.2184,-7.2217,-7.2261,-7.2282,-7.2333,-7.236,-7.2401,-7.2394,-7.2347,-7.2499,-7.2431,-7.25,-7.2501,-7.2529,-7.2527,-7.2737,-7.2554,-7.2554,-7.2554,-7.2553,0,-7.2014,-7.2091,-7.2092,-7.2145,-7.2231,-7.2221,-7.2306,-7.2319,-7.2348,-7.2402,-7.2375,-7.2427,-7.2418,-7.2471,-7.2468,-7.2553,-7.2566,-7.2568,-7.2565,-7.2568,-7.2568,-7.2583,-7.2572,-7.2559,-7.2558,-7.2557,-7.2556,0,-7.2156,-7.2161,-7.2252,-7.2283,-7.2293,-7.2355,-7.238,-7.2431,-7.2438,-7.2508,-7.2524,-7.2533,-7.2595,-7.2595,-7.2664,-7.2662,-7.2766,-7.2754,-7.2755,-7.2751,-7.282,-7.2813,-7.3045,-7.3075,-7.2875,-7.2877,-7.2879,0,-7.225,-7.2309,-7.2348,-7.2384,-7.2404,-7.2462,-7.2497,-7.2492,-7.2529,-7.2575,-7.262,-7.268,-7.2727,-7.2828,-7.284,-7.2895,-7.2882,-7.296,-7.2889,-7.2892,-7.2881,-7.2876,-7.2882,-7.2972,-7.2974,-7.2976,-7.2978,0,-7.2416,-7.2417,-7.2468,-7.2523,-7.2566,-7.2608,-7.2646,-7.2678,-7.2677,-7.2721,-7.2785,-7.2822,-7.2896,-7.2955,-7.3009,-7.3027,-7.3003,-7.3001,-7.302,-7.3021,-7.3018,-7.3019,-7.2789,-7.2994,-7.2992,-7.2991,-7.299,-7.299,-7.2536,-7.2587,-7.2624,-7.2683,-7.2713,-7.2751,-7.2801,-7.2816,-7.2869,-7.2929,-7.2924,-7.2995,-7.3032,-7.3102,-7.3126,-7.3182,-7.3155,-7.3182,-7.3188,-7.3194,-7.3201,-7.3014,-7.3192,-7.3192,-7.3191,-7.3191,-7.3191,0,-7.2698,-7.2722,-7.2777,-7.2834,-7.2882,-7.2859,-7.2903,-7.2944,-7.3007,-7.3044,-7.3093,-7.3168,-7.3228,-7.3248,-7.3306,-7.3348,-7.3338,-7.3363,-7.3358,-7.3363,-7.3223,-7.32,-7.337,-7.337,-7.337,-7.337,-7.337,-7.337,-7.2788,-7.2875,-7.2881,-7.2984,-7.3007,-7.3077,-7.3104,-7.314,-7.317,-7.3256,-7.3306,-7.332,-7.3351,-7.3413,-7.3467,-7.3472,-7.3494,-7.3523,-7.3523,-7.339,-7.3372,-7.3355,-7.3333,-7.3528,-7.3529,-7.3658,-7.3659,-7.366]},{"header":{"parameterUnit":"m.s-1","parameterCategory":1,"la1":30.2991,"la2":30.254,"lo1":-89.0895,"lo2":-89.0444,"dy":0.0017,"dx":0.0017,"nx":28,"ny":28,"refTime":"2023-10-25T03:00:00:Z","depth":0,"parameterNumber":3,"parameterNumberName":"V-component_of_WINDS"},"data":[0,0,0,0,0,0,0,0,0,0,0,0,0,0,0,0,0,0,0,0,0,0,0,0,0,0,0,0,0,0,0,0,0,0,0,0,0,0,0,0,0,0,0,0,0,0,0,0,0,0,0,0,0,0,0,0,0,0,1.8553,1.8553,0,1.8617,1.8618,1.8619,1.8711,1.8713,1.8714,1.8716,1.8775,1.8775,1.8775,0,0,0,0,0,0,0,0,0,0,0,0,0,1.8504,1.8505,1.8552,1.8553,1.8554,1.8617,1.8618,1.8619,1.8711,1.8713,1.8715,1.8716,1.8775,1.8775,1.8775,0,0,0,0,0,0,0,0,0,0,0,0,0,1.8543,1.8505,1.8552,1.8608,1.8613,1.8617,1.8618,1.8619,1.871,1.8713,1.8715,1.8717,1.8775,1.8775,1.8775,1.8728,0,0,1.8776,1.8776,0,0,0,0,0,0,0,0,1.854,1.8544,1.8599,1.8604,1.861,1.8659,1.8623,1.8656,1.871,1.8673,1.8716,1.8719,1.8734,1.8738,1.8744,1.8731,1.8734,1.8776,1.8776,1.8776,1.8776,0,0,0,0,0,0,0,1.8538,1.8542,1.8578,1.8599,1.8606,1.8628,1.8636,1.863,1.8689,1.8677,1.8683,1.869,1.8738,1.8744,1.8746,1.8734,1.8776,1.8776,1.8776,1.8776,1.8689,1.8687,0,0,0,0,0,0,1.8527,1.8539,1.8576,1.858,1.8581,1.8627,1.8636,1.8641,1.869,1.8699,1.8688,1.8694,1.8743,1.8746,1.8749,1.8699,1.8776,1.8776,1.8776,1.8691,1.8689,1.8686,0,0,0,0,0,0,1.8526,1.853,1.8573,1.8562,1.8569,1.8625,1.863,1.8641,1.8647,1.8698,1.8709,1.8684,1.8745,1.8749,1.8734,1.8702,1.8776,1.8776,1.8694,1.8691,1.8687,1.8597,0,0,0,0,0,0,1.8524,1.8529,1.8512,1.8561,1.8569,1.8558,1.8628,1.864,1.8648,1.8657,1.8697,1.8706,1.8747,1.8733,1.8734,1.8704,1.8776,1.8697,1.8693,1.8688,1.8603,1.8591,1.8581,0,0,0,0,0,1.8522,1.8482,1.8511,1.8514,1.855,1.8556,1.8561,1.861,1.8645,1.8629,1.8662,1.8705,1.8706,1.8731,1.8733,1.8702,1.87,1.8694,1.8689,1.8609,1.8594,1.8581,0,0,0,0,0,0,1.8424,1.8489,1.8522,1.8496,1.852,1.8572,1.8552,1.8592,1.8605,1.8612,1.8671,1.868,1.8658,1.8679,1.8705,1.8661,1.8709,1.8704,1.8648,1.8634,1.8623,1.8618,1.8777,0,0,0,0,0,1.8401,1.8402,1.8458,1.843,1.8441,1.8494,1.8499,1.8535,1.8562,1.8572,1.8604,1.8626,1.8632,1.8634,1.8642,1.8607,1.8618,1.8587,1.8576,1.8566,1.8561,1.8546,1.8534,1.8668,1.8668,1.8668,0,0,1.835,1.8385,1.8382,1.8411,1.8434,1.8434,1.8502,1.8497,1.8498,1.857,1.856,1.8584,1.8613,1.8589,1.858,1.8605,1.8527,1.856,1.8552,1.8551,1.854,1.8527,1.8515,1.8665,1.8665,1.8666,0,0,1.8258,1.8285,1.8266,1.8289,1.8324,1.8361,1.8356,1.8402,1.8423,1.8413,1.8469,1.8469,1.8477,1.8497,1.8507,1.8427,1.8468,1.8428,1.8368,1.8353,1.8343,1.8334,1.8306,1.8296,1.8422,1.8422,1.8422,0,1.819,1.8193,1.825,1.8244,1.8256,1.8325,1.8307,1.8325,1.836,1.8366,1.8395,1.841,1.8434,1.8416,1.8397,1.8403,1.84,1.8423,1.834,1.8332,1.8324,1.8298,1.8288,1.8417,1.8418,1.8418,1.8419,0,1.8109,1.811,1.809,1.8126,1.8136,1.8123,1.8178,1.818,1.8217,1.825,1.8241,1.8273,1.829,1.8289,1.8323,1.8277,1.8292,1.833,1.838,1.8305,1.8282,1.8273,1.841,1.8412,1.8413,1.8415,0,0,1.7954,1.8025,1.8017,1.8036,1.8082,1.8083,1.8074,1.8094,1.8096,1.8118,1.8112,1.812,1.8156,1.8168,1.8206,1.8193,1.8129,1.8232,1.8234,1.8213,1.8082,1.8054,1.8042,1.8157,1.8155,1.8154,1.808,0,1.7872,1.7863,1.7915,1.7891,1.7895,1.7962,1.7955,1.7982,1.8013,1.8019,1.8054,1.8059,1.8105,1.8114,1.8104,1.8139,1.8104,1.8145,1.8151,1.8151,1.8142,1.803,1.7999,1.7928,1.8072,1.807,1.8069,0,1.7773,1.7795,1.7772,1.7823,1.7826,1.7818,1.7842,1.7847,1.788,1.7904,1.792,1.7964,1.7959,1.8007,1.8001,1.8028,1.8034,1.8052,1.805,1.8052,1.8105,1.8029,1.7906,1.7896,1.8055,1.8056,1.8057,0,1.7665,1.7687,1.7678,1.7691,1.7749,1.7743,1.7766,1.7802,1.7811,1.7832,1.7839,1.7857,1.7867,1.788,1.7928,1.7959,1.7916,1.7968,1.7936,1.7934,1.7923,1.7923,1.7799,1.7926,1.7926,1.7926,1.7927,0,1.7567,1.7551,1.7631,1.7624,1.7609,1.767,1.7652,1.7682,1.7713,1.7714,1.7773,1.7772,1.7836,1.7841,1.7879,1.7869,1.7872,1.7891,1.7902,1.7886,1.7884,1.7891,1.7897,1.7924,1.7924,1.7925,1.7925,0,1.7443,1.7496,1.749,1.7547,1.7561,1.7547,1.7595,1.7592,1.7629,1.7629,1.7632,1.7689,1.77,1.775,1.777,1.7796,1.7773,1.7793,1.7763,1.7769,1.7735,1.7737,1.7611,1.7598,1.7732,1.7731,1.773,0,1.7377,1.7367,1.7424,1.7431,1.7453,1.7461,1.7472,1.7532,1.7541,1.758,1.7572,1.7588,1.7604,1.7617,1.7659,1.7676,1.7698,1.7652,1.77,1.7686,1.7698,1.7698,1.7698,1.7641,1.764,1.7638,1.7637,0,1.7256,1.7284,1.7299,1.7324,1.7336,1.7358,1.7383,1.7384,1.7451,1.7458,1.7471,1.7484,1.7508,1.7523,1.7548,1.7572,1.7615,1.7622,1.7616,1.76,1.7584,1.7593,1.7735,1.7624,1.7626,1.7627,1.7627,1.7628,1.716,1.7155,1.7196,1.7211,1.7237,1.726,1.7261,1.73,1.7312,1.7338,1.7373,1.7382,1.7417,1.7456,1.7476,1.7483,1.7508,1.7498,1.7495,1.7492,1.7485,1.7583,1.7488,1.7488,1.7488,1.7489,1.7489,0,1.7043,1.7073,1.7087,1.7122,1.7135,1.7178,1.7209,1.7216,1.7224,1.7254,1.727,1.7286,1.7302,1.7347,1.7368,1.7365,1.7386,1.7368,1.7369,1.7374,1.7461,1.7466,1.7351,1.7351,1.7351,1.7351,1.7351,1.7351,1.6983,1.6978,1.7011,1.702,1.705,1.7062,1.7076,1.7097,1.7122,1.7139,1.7153,1.7184,1.722,1.7244,1.7261,1.7274,1.7278,1.7254,1.7274,1.7354,1.7367,1.738,1.7384,1.7255,1.7255,1.7186,1.7185,1.7185]}]]